Theta_e
309 311 314 314 314 312 314 314 316 317 319 317 316 318 322 321 325 328 320 329 332 334 335 336 336 335 335 335 333 331 330 328 326 324 322 320 320 321 325 330 331 332 333 335 336 337 338 338 337
311 313 315 311 311 310 309 311 315 315 318 317 319 319 321 323 321 320 326 328 332 334 334 334 335 334 333 331 328 325 321 317 314 312 311 310 309 309 310 311 316 326 328 328 332 334 336 337 336
315 314 311 314 310 310 313 313 314 316 318 319 320 318 318 321 318 319 324 328 333 333 334 334 333 330 328 326 322 317 314 311 308 306 304 305 306 308 310 313 313 312 314 321 325 329 331 332 334
314 310 307 314 316 314 312 313 315 321 320 319 319 322 318 318 318 318 323 331 333 333 333 332 329 327 325 320 316 313 309 305 303 302 303 303 305 310 313 315 316 317 317 318 319 322 324 327 330
311 305 308 312 313 312 310 310 311 319 318 319 318 320 319 316 317 319 323 331 333 332 330 327 324 322 318 314 311 308 304 303 302 303 304 305 310 313 313 314 315 315 316 316 317 318 319 321 323
311 308 309 308 308 310 310 309 313 317 316 315 319 319 318 315 317 320 325 330 331 329 324 322 319 316 313 311 307 305 304 303 304 304 305 309 311 311 312 313 314 314 314 315 315 316 317 317 319
311 311 310 311 312 313 313 310 314 314 314 315 316 320 316 314 316 321 325 326 326 323 320 317 316 314 311 308 306 305 304 304 305 305 304 305 305 307 308 309 309 311 313 313 314 314 315 315 316
309 310 313 312 313 314 313 313 313 313 315 311 314 318 317 314 316 321 324 323 321 319 317 316 313 310 308 307 306 305 305 305 305 304 303 304 307 308 309 309 308 310 310 311 311 311 312 313 315
309 315 314 315 315 315 312 314 312 311 313 312 312 313 312 314 315 320 319 318 318 317 315 314 311 310 308 307 306 305 305 305 304 303 305 307 308 309 309 308 308 309 309 309 309 310 310 311 312
313 314 314 312 312 312 312 312 312 312 312 312 312 310 312 313 313 314 313 313 315 315 314 313 311 310 308 307 306 306 305 305 304 305 307 308 309 308 308 308 308 308 308 308 307 307 307 308 309
312 313 311 311 310 311 312 311 310 311 312 310 312 310 311 312 311 311 312 313 314 314 314 313 311 309 308 307 306 306 305 304 305 307 308 308 308 308 308 308 308 308 308 308 306 306 307 309 312
313 311 310 311 311 312 312 310 311 310 311 310 308 308 310 312 312 311 312 312 313 313 313 313 311 309 308 307 306 306 305 305 306 308 309 308 308 308 308 308 308 308 308 307 306 307 309 313 315
313 312 309 309 309 310 310 311 311 310 308 307 306 307 309 310 311 312 313 313 313 312 313 312 311 309 308 307 306 306 305 306 308 309 308 308 308 307 307 307 307 307 307 306 308 312 315 312 310
311 312 311 312 312 311 312 312 311 312 310 310 309 308 307 307 309 310 311 312 312 313 313 312 311 309 308 307 306 305 305 307 309 309 308 308 307 307 307 307 307 307 306 308 313 316 315 315 315
312 314 312 311 311 312 310 313 312 311 309 310 309 308 307 306 306 310 312 312 313 313 312 312 311 309 307 306 306 305 306 309 309 308 308 307 307 307 307 307 307 306 307 309 314 315 317 316 317
313 312 315 313 312 312 312 318 315 310 310 311 310 309 309 308 306 308 310 311 312 312 312 311 310 308 307 306 306 306 308 308 308 308 307 307 308 308 306 307 306 306 307 313 316 315 315 315 316
310 315 314 315 312 313 312 316 314 311 310 313 313 310 310 309 307 308 309 309 311 312 311 310 309 307 306 305 306 307 308 308 308 308 309 308 306 307 307 306 306 307 314 316 316 314 315 315 313
314 314 313 315 314 313 314 314 313 312 311 313 313 310 309 308 308 306 307 307 309 310 311 310 308 306 305 306 307 308 308 309 309 308 308 306 305 305 306 306 308 312 315 316 314 313 315 314 314
311 313 316 315 312 314 314 313 313 313 311 312 312 309 308 307 305 304 304 306 307 308 308 308 306 305 306 306 307 308 309 309 309 306 305 305 305 305 306 307 312 315 315 314 313 311 314 313 316
310 312 312 313 312 313 312 314 314 312 312 311 309 309 308 307 306 303 303 304 306 306 307 306 305 306 306 306 308 309 309 308 307 306 305 305 306 306 306 309 313 315 315 313 314 313 313 313 314
312 311 312 312 312 311 309 316 314 312 309 307 307 306 306 306 306 303 301 301 303 304 305 305 306 306 306 307 308 309 308 308 307 307 306 306 306 306 308 311 313 314 314 313 315 314 313 312 313
312 310 310 313 315 318 310 322 313 312 309 309 307 307 305 305 304 302 301 300 301 303 304 305 306 306 306 307 308 309 309 307 307 307 306 306 306 307 310 312 313 313 313 313 314 314 314 313 311
312 310 312 313 312 313 313 315 317 309 310 309 308 305 304 304 302 302 300 300 302 303 305 306 306 306 306 308 308 309 309 307 307 308 307 307 307 308 310 312 314 313 313 313 313 314 314 313 312
308 309 309 307 309 312 310 313 318 310 307 305 303 302 304 303 301 299 299 301 302 304 305 305 306 306 307 308 308 309 309 307 308 308 307 308 309 309 310 312 312 314 313 313 313 314 314 313 312
310 313 317 313 312 317 308 310 314 305 301 301 301 301 301 302 301 300 299 300 302 304 305 305 305 305 306 307 308 308 309 309 309 308 309 309 310 311 312 313 313 313 313 314 313 313 313 314 313
309 312 314 313 310 311 309 312 311 301 300 299 299 298 297 299 300 299 298 299 302 303 304 305 305 305 305 307 308 307 309 309 309 310 310 311 312 312 312 313 313 313 313 313 313 313 313 314 313
311 313 306 307 300 307 308 307 306 302 301 299 298 296 295 295 296 297 298 299 301 302 303 304 304 304 305 306 307 307 308 309 309 310 310 311 312 313 313 314 313 312 313 313 314 313 313 314 313
309 307 312 308 307 309 305 308 305 304 301 299 297 295 293 293 293 294 294 295 297 299 301 303 303 304 304 305 306 307 307 308 309 310 310 310 312 313 313 314 314 313 313 313 313 313 313 312 313
309 310 307 309 307 307 307 307 303 300 298 297 295 294 292 291 291 291 292 291 291 293 295 297 299 302 303 304 305 306 307 307 308 309 310 310 311 312 313 315 315 314 314 314 314 314 313 312 312
307 309 307 307 307 307 309 308 300 298 296 295 294 293 292 291 290 289 289 289 288 288 289 291 293 295 297 301 303 304 305 306 307 308 309 310 312 312 313 314 315 315 315 314 314 314 313 312 312
Wind_Speed
2 2 2 4 3 4 2 4 2 3 2 1 3 4 4 3 4 3 2 12 15 24 19 18 16 14 12 13 8 7 6 5 5 6 7 7 8 9 9 9 10 10 9 9 10 11 12 14 13
3 4 4 3 4 2 3 3 5 4 1 1 3 1 1 3 1 1 6 9 20 25 19 18 17 15 13 11 9 7 6 6 7 8 9 9 9 10 11 12 13 14 13 13 12 12 12 14 15
5 4 3 4 3 4 3 5 3 2 1 2 0 2 1 2 2 2 4 15 24 22 20 18 17 13 11 10 8 6 6 6 6 7 8 8 9 9 9 10 11 13 14 14 14 15 14 14 13
4 4 4 3 4 5 4 3 1 2 1 2 1 4 2 2 3 3 10 18 25 22 19 16 14 11 10 8 7 5 5 5 6 7 8 9 10 9 10 10 11 12 13 13 13 14 15 15 16
3 3 3 2 4 4 4 5 2 2 1 2 2 2 3 1 1 5 17 21 24 22 18 16 13 11 10 9 6 5 5 5 6 7 8 10 9 10 10 11 11 11 12 13 14 14 15 14 13
3 3 2 3 4 4 4 5 1 3 3 2 2 0 3 1 5 10 19 22 21 20 18 16 13 12 9 7 6 5 5 5 6 7 9 9 9 10 10 11 10 11 12 13 13 14 14 14 15
5 4 3 3 3 4 3 6 3 3 3 4 2 2 2 1 7 14 20 20 20 18 17 15 13 10 9 7 5 4 3 4 5 7 9 10 12 12 12 12 12 12 12 12 12 13 14 14 14
4 3 2 3 3 4 1 3 1 4 4 2 3 4 4 2 12 17 18 19 19 18 17 15 13 10 8 6 5 4 4 5 7 9 11 12 13 12 9 9 12 10 11 11 13 14 15 14 14
3 3 2 4 5 2 2 2 0 1 1 2 5 3 1 8 16 19 17 18 19 19 18 16 14 11 9 7 6 5 4 7 9 11 12 12 11 8 8 8 9 11 11 12 15 14 16 16 16
3 4 8 5 4 2 1 1 2 2 0 3 5 2 3 14 19 18 17 19 23 23 22 18 16 12 11 9 7 6 6 8 10 12 11 9 8 8 9 11 11 12 14 15 13 17 17 14 15
5 5 4 2 3 1 1 2 2 3 5 9 6 4 4 9 14 14 18 22 27 25 22 21 17 14 12 10 8 6 7 9 10 10 8 7 7 9 9 11 11 12 12 12 13 16 15 15 19
3 5 4 1 2 2 2 4 5 7 7 2 8 2 5 8 11 18 19 26 24 24 24 21 18 16 14 11 9 7 7 9 10 8 6 6 7 8 11 11 10 11 12 12 15 15 17 18 14
2 3 4 4 4 4 2 7 6 11 10 8 6 5 7 8 13 20 26 24 23 23 24 22 20 17 15 12 9 7 8 9 9 6 6 6 8 10 11 9 10 11 10 12 15 19 16 11 5
5 2 3 3 4 3 3 4 2 3 1 3 3 6 7 9 13 14 21 26 25 24 24 23 21 18 15 12 9 7 8 8 7 6 5 6 7 8 8 10 11 8 9 11 16 14 6 7 6
4 2 2 5 2 5 6 7 8 6 5 7 7 7 7 7 13 20 26 28 29 26 24 24 22 19 16 12 8 7 7 8 6 5 6 6 8 8 8 9 8 7 7 9 9 7 12 15 16
2 3 2 2 3 2 1 8 5 5 2 7 8 7 7 7 11 21 23 25 25 25 24 23 23 21 16 11 7 6 6 5 4 5 5 7 8 8 7 6 6 5 7 7 4 8 16 17 18
3 3 3 2 1 2 3 6 4 2 7 14 12 9 8 9 9 19 21 22 23 23 23 23 22 21 16 10 5 4 3 1 3 6 6 5 5 4 4 2 4 5 7 8 10 17 20 25 22
4 3 3 2 4 2 3 12 15 8 6 14 15 10 9 9 9 12 10 15 18 21 24 24 23 19 14 8 4 2 1 1 3 4 4 3 2 0 1 3 5 3 5 12 13 18 25 26 25
5 2 2 0 2 2 4 9 15 13 9 14 12 9 8 7 4 11 2 10 16 19 23 25 24 18 13 8 4 2 2 1 3 4 2 1 2 4 4 6 5 9 8 12 14 21 31 24 26
3 2 2 2 2 0 6 17 13 9 6 5 8 8 7 7 6 7 5 10 19 26 26 25 20 16 10 5 4 2 3 2 2 3 1 2 2 4 5 5 6 9 11 14 21 16 11 15 8
2 4 3 3 4 3 6 9 6 4 4 6 8 5 4 6 7 5 5 7 15 23 25 23 17 12 8 5 4 5 3 1 0 1 1 2 3 6 5 4 8 9 8 10 17 16 13 5 12
3 5 5 3 3 2 3 5 6 6 8 6 10 12 8 9 7 4 3 5 13 19 20 16 14 9 6 5 5 4 2 2 1 2 2 2 4 6 6 3 6 10 8 9 12 13 11 11 8
4 5 5 3 4 2 3 2 7 4 5 10 12 15 13 8 7 6 3 7 12 17 16 14 11 8 5 4 4 3 2 2 3 2 3 3 5 7 5 4 6 9 9 10 11 13 12 11 3
8 6 5 4 3 1 2 3 5 4 7 7 12 15 14 11 8 6 6 8 12 13 13 11 9 7 4 4 4 2 2 2 2 3 4 4 6 7 6 5 6 7 7 12 14 12 12 10 2
2 4 2 3 2 4 2 1 5 4 4 7 13 15 16 11 8 6 5 7 7 7 9 7 5 4 3 3 3 3 2 2 3 4 4 4 5 7 7 5 8 11 10 9 12 11 10 11 8
6 3 5 6 3 1 3 5 2 5 4 8 11 12 16 17 13 8 6 6 5 2 2 2 2 1 1 3 3 4 4 4 4 4 4 4 4 5 7 8 9 12 12 11 13 12 12 9 9
6 3 3 6 3 3 3 4 3 4 12 15 15 15 17 16 16 14 13 12 7 2 4 4 3 4 4 4 4 5 6 5 5 5 4 5 6 6 7 8 10 13 13 12 13 14 14 13 10
2 5 3 3 3 3 3 5 3 6 10 12 15 15 14 14 16 15 20 21 18 13 10 8 8 9 8 7 6 6 7 7 6 7 7 7 8 7 8 9 11 13 13 15 13 14 14 12 13
3 2 4 3 4 4 2 4 1 3 4 7 9 11 12 13 12 13 18 21 22 23 20 16 12 12 12 10 9 9 8 9 9 9 9 9 8 7 9 11 12 13 13 14 14 14 15 14 14
1 5 5 4 4 2 2 3 4 6 5 5 7 9 10 10 11 11 17 20 24 25 26 25 21 18 15 13 12 11 10 10 11 11 11 10 10 10 9 12 13 15 15 15 16 17 16 17 18
Wind_Direction
249 182 121 47 69 66 258 261 275 238 234 210 117 139 192 155 168 210 300 172 159 162 161 165 175 178 175 176 182 184 201 220 242 257 265 273 277 276 273 269 270 270 274 295 285 280 280 274 266
168 135 65 76 98 105 262 249 235 226 324 134 155 159 139 251 294 330 124 172 161 162 165 170 173 175 182 181 180 190 209 234 255 272 281 283 284 282 280 276 272 270 269 282 284 282 286 281 268
149 115 90 102 122 187 205 208 259 289 222 211 253 170 170 222 224 203 199 175 163 168 166 170 177 178 179 184 190 201 218 246 268 278 286 293 299 302 301 300 295 284 277 280 290 273 279 277 272
171 40 39 108 208 250 220 205 162 297 156 271 134 297 306 223 156 189 165 166 166 171 176 180 181 182 187 191 198 210 235 251 272 287 294 302 301 312 310 313 314 313 309 303 298 293 283 283 265
66 70 82 109 249 257 225 263 216 212 155 195 191 259 255 157 227 162 167 166 170 171 176 181 183 187 191 193 202 222 243 264 276 289 301 306 313 322 325 321 317 315 313 309 302 296 291 288 286
48 106 87 208 241 250 258 221 162 217 168 212 207 200 249 147 172 160 167 170 175 176 179 181 183 185 196 204 212 231 252 267 282 299 308 313 317 319 320 321 322 319 316 313 307 301 297 290 282
131 103 208 180 241 288 229 138 196 201 167 232 182 152 273 152 177 167 168 174 178 180 181 182 182 192 205 213 216 227 251 277 294 309 308 303 306 308 310 316 320 323 317 314 311 304 296 291 285
112 93 136 229 211 254 213 166 153 179 244 45 185 213 256 146 165 165 168 177 181 185 189 189 188 194 199 203 214 233 270 281 297 310 309 308 306 306 308 328 340 329 325 316 309 306 300 294 282
130 83 213 233 177 256 34 29 139 343 265 252 213 203 159 150 158 163 170 184 190 192 195 194 195 197 211 217 230 249 273 291 303 309 311 307 303 302 306 313 306 308 314 313 313 306 305 290 279
128 160 208 208 196 184 181 144 300 304 297 253 273 206 138 161 169 175 184 192 198 198 199 199 202 202 213 223 232 252 281 295 307 311 312 307 298 298 294 298 303 301 307 306 306 306 304 295 290
175 199 213 227 220 216 233 273 224 187 255 221 227 233 167 184 190 200 206 204 207 205 204 204 204 206 215 225 235 261 287 302 309 313 308 303 300 300 299 305 308 311 315 314 317 313 306 303 303
179 225 186 277 102 149 239 305 272 198 226 219 222 227 155 197 207 211 216 217 213 208 211 207 207 210 216 221 239 269 294 307 312 310 299 300 302 312 316 314 315 320 320 321 316 311 313 311 300
214 227 171 239 266 254 311 245 246 260 246 258 254 247 222 223 222 225 225 228 222 216 214 209 209 211 216 221 240 274 298 308 308 303 295 302 306 320 323 316 320 320 324 322 329 328 327 337 342
200 204 281 306 276 260 227 263 174 262 150 194 202 252 243 232 233 234 230 228 224 222 215 208 210 211 215 223 242 276 298 306 305 295 293 293 301 310 311 319 317 327 329 344 346 351 25 39 67
160 272 292 226 230 231 191 262 232 269 278 279 280 271 261 241 239 229 231 226 225 221 217 208 207 209 211 220 243 279 300 303 291 281 284 284 291 295 299 308 318 331 346 349 353 53 85 88 95
115 48 238 130 170 262 165 276 272 1 50 307 294 280 265 249 234 244 246 239 231 222 212 203 202 202 204 214 240 277 300 297 280 284 295 293 293 295 298 305 323 336 336 344 43 115 108 98 96
19 199 219 354 204 102 114 280 296 2 338 298 284 273 273 275 257 266 255 240 227 215 204 196 197 195 192 206 230 275 304 300 291 294 305 309 307 301 303 351 38 5 352 96 126 109 109 101 91
187 200 214 257 4 32 244 266 280 285 276 278 287 287 277 286 293 318 288 225 210 201 195 189 183 185 185 195 207 230 205 338 330 322 319 325 330 5 88 75 49 29 133 127 123 123 117 106 96
119 95 55 16 24 313 263 280 282 286 268 279 294 294 313 314 348 2 359 184 176 177 180 177 174 178 184 181 174 200 194 41 5 352 358 36 83 111 115 86 66 131 148 133 132 121 115 110 107
63 36 302 296 19 77 338 296 277 281 276 292 312 324 335 343 356 29 62 158 169 166 171 169 172 173 182 190 183 174 153 65 18 14 58 103 109 125 118 83 102 141 145 130 142 132 125 124 129
192 193 179 216 332 63 331 297 339 300 29 2 13 338 4 15 357 37 68 144 161 164 167 166 167 170 174 195 183 157 126 99 32 16 132 124 127 131 115 65 142 138 154 150 155 158 146 137 136
177 196 164 164 95 236 11 284 310 312 345 35 18 13 1 2 11 36 88 133 155 160 160 162 159 164 173 177 195 205 201 154 143 153 174 156 149 147 120 122 157 150 170 171 178 177 166 153 119
209 125 145 116 113 31 338 87 271 9 3 359 359 355 354 8 12 32 68 143 150 152 154 159 156 154 172 174 196 202 157 160 157 174 178 174 169 166 144 140 168 169 172 180 184 176 171 168 139
155 87 64 57 91 58 279 137 287 19 327 330 346 353 356 5 15 29 62 125 136 146 151 158 154 148 162 185 185 207 221 177 201 170 189 194 181 185 178 166 210 208 184 193 192 192 184 182 184
31 107 12 356 10 214 25 45 254 40 5 6 351 350 353 3 16 20 55 94 125 146 150 151 151 145 156 211 213 216 238 236 216 211 216 210 203 202 193 194 204 210 211 200 198 200 196 200 203
195 181 161 200 197 236 89 227 255 107 46 28 24 7 9 8 8 21 40 92 116 152 162 156 159 203 225 249 250 240 238 245 228 224 229 238 231 228 205 229 219 211 210 202 205 211 212 217 214
186 187 160 105 40 49 222 279 263 46 20 19 18 19 13 6 6 12 33 24 14 26 325 321 315 298 310 296 277 265 250 251 242 238 226 226 239 236 224 223 214 208 211 218 216 220 221 218 219
151 166 82 9 150 233 283 286 234 356 355 4 9 13 10 11 12 14 18 21 22 17 355 338 329 317 315 310 288 278 264 258 253 245 243 243 237 238 219 215 211 204 216 221 221 219 221 227 218
121 185 54 130 157 171 170 248 45 102 14 9 8 11 11 11 13 16 17 16 16 27 25 13 358 332 320 316 305 291 281 270 261 255 250 251 246 243 235 222 221 218 219 221 223 231 232 229 224
64 199 171 145 215 222 143 261 103 97 59 20 16 20 15 11 11 20 22 20 17 13 14 16 14 3 342 320 309 303 294 283 274 266 261 257 257 249 248 237 232 228 227 229 234 235 234 232 229